Location: Songkhla
(7.2000°N, 100.6000°E)
Time: 08:26:16
(UTC+07:00)

JAISAT 1 - Pass Details

Date: 02 October 2022
Orbit: 493 x 514 km, 97.7° (Epoch: 05 December)

Event Time Altitude Azimuth Distance (km) Brightness Sun altitude
Rises 15:28:09 0° 155° (SSE) 2,634 ? 38.7°
Reaches altitude 10° 15:30:22 10° 147° (SSE) 1,742 ? 38.1°
Maximum altitude 15:33:51 37° 78° (ENE) 804 ? 37.3°
Drops below altitude 10° 15:37:19 10° 10° (N) 1,724 ? 36.4°
Sets 15:39:29 0° 1° (N) 2,602 ? 35.9°
